• în România
  • Lista ţărilor
  • Pe 7 zile
  • Temperatura apei
  • Hartă satelitară
  • Meteo pe hartă
  • Widget-uri
  • user-avatar
    Intrare

    Meteo pe oră la Konstantyna

    Astăzi, 23 Februarie, Joi

    Timp Temperatura Precipitaţii Vânt Presiune Umiditate
    00:00 +11°C° 0 mm 1 m/s 712 mmHg 66%
    01:00 +11°C° 0 mm 1 m/s 712 mmHg 65%
    02:00 +10°C° 0 mm 2 m/s 711 mmHg 65%
    03:00 +10°C° 0 mm 2 m/s 711 mmHg 64%
    04:00 +10°C° 0 mm 2 m/s 711 mmHg 65%
    05:00 +11°C° 0 mm 1 m/s 711 mmHg 67%
    06:00 +11°C° 0 mm 1 m/s 711 mmHg 68%
    07:00 +14°C° 0 mm 1 m/s 711 mmHg 61%
    08:00 +18°C° 0 mm 1 m/s 712 mmHg 53%
    09:00 +21°C° 0 mm 1 m/s 712 mmHg 46%
    10:00 +21°C° 0,1 mm 2 m/s 712 mmHg 42%
    11:00 +24°C° 0,1 mm 2 m/s 712 mmHg 37%
    12:00 +25°C° 0,1 mm 2 m/s 712 mmHg 33%
    13:00 +25°C° 0,1 mm 2 m/s 711 mmHg 34%
    14:00 +25°C° 0,1 mm 2 m/s 711 mmHg 35%
    15:00 +25°C° 0,1 mm 2 m/s 710 mmHg 37%
    16:00 +23°C° 0,1 mm 2 m/s 710 mmHg 43%
    17:00 +19°C° 0,1 mm 2 m/s 709 mmHg 50%
    18:00 +17°C° 0,1 mm 2 m/s 709 mmHg 57%
    19:00 +16°C° 0 mm 2 m/s 709 mmHg 58%
    20:00 +15°C° 0 mm 2 m/s 708 mmHg 59%
    21:00 +14°C° 0 mm 2 m/s 708 mmHg 60%
    22:00 +14°C° 0 mm 2 m/s 708 mmHg 58%
    23:00 +13°C° 0 mm 3 m/s 707 mmHg 56%

    Mâine, 24 Februarie, Vineri

    Timp Temperatura Precipitaţii Vânt Presiune Umiditate
    00:00 +13°C° 0 mm 3 m/s 707 mmHg 54%
    01:00 +13°C° 0 mm 3 m/s 706 mmHg 53%
    02:00 +13°C° 0 mm 3 m/s 706 mmHg 52%
    03:00 +13°C° 0 mm 4 m/s 705 mmHg 51%
    04:00 +12°C° 0 mm 3 m/s 705 mmHg 53%
    05:00 +12°C° 0 mm 3 m/s 705 mmHg 55%
    06:00 +12°C° 0 mm 2 m/s 705 mmHg 56%
    07:00 +13°C° 0 mm 3 m/s 705 mmHg 51%
    08:00 +17°C° 0 mm 4 m/s 706 mmHg 45%
    09:00 +19°C° 0 mm 4 m/s 707 mmHg 39%
    10:00 +20°C° 0 mm 5 m/s 707 mmHg 36%
    11:00 +21°C° 0 mm 5 m/s 707 mmHg 34%
    12:00 +22°C° 0 mm 5 m/s 707 mmHg 31%
    13:00 +21°C° 0 mm 5 m/s 707 mmHg 36%
    14:00 +20°C° 0 mm 5 m/s 706 mmHg 41%
    15:00 +20°C° 0 mm 5 m/s 706 mmHg 46%
    16:00 +17°C° 0,1 mm 4 m/s 706 mmHg 61%
    17:00 +14°C° 0,1 mm 3 m/s 706 mmHg 75%
    18:00 +11°C° 0,1 mm 3 m/s 706 mmHg 90%
    19:00 +10°C° 0,1 mm 2 m/s 707 mmHg 92%
    20:00 +10°C° 0,1 mm 2 m/s 707 mmHg 94%
    21:00 +10°C° 0,1 mm 1 m/s 708 mmHg 97%
    22:00 +10°C° 0 mm 1 m/s 708 mmHg 96%
    23:00 +10°C° 0 mm 1 m/s 708 mmHg 95%

    Poimâine, 25 Februarie, Sâmbătă

    Timp Temperatura Precipitaţii Vânt Presiune Umiditate
    00:00 +11°C° 0 mm 1 m/s 709 mmHg 93%
    01:00 +11°C° 0,1 mm 1 m/s 709 mmHg 94%
    02:00 +11°C° 0,1 mm 1 m/s 709 mmHg 94%
    03:00 +10°C° 0,1 mm 1 m/s 709 mmHg 94%
    04:00 +10°C° 0,1 mm 1 m/s 709 mmHg 94%
    05:00 +10°C° 0,1 mm 1 m/s 709 mmHg 94%
    06:00 +10°C° 0,1 mm 1 m/s 710 mmHg 94%
    07:00 +10°C° 0,1 mm 1 m/s 710 mmHg 91%
    08:00 +10°C° 0,1 mm 2 m/s 711 mmHg 89%
    09:00 +10°C° 0,1 mm 2 m/s 711 mmHg 86%
    10:00 +10°C° 0,1 mm 2 m/s 711 mmHg 84%
    11:00 +10°C° 0,1 mm 2 m/s 711 mmHg 82%
    12:00 +10°C° 0,1 mm 3 m/s 711 mmHg 80%
    13:00 +10°C° 0,1 mm 3 m/s 711 mmHg 77%
    14:00 +10°C° 0,1 mm 3 m/s 711 mmHg 75%
    15:00 +11°C° 0,1 mm 3 m/s 711 mmHg 72%
    16:00 +9°C° 0 mm 3 m/s 711 mmHg 78%
    17:00 +8°C° 0 mm 2 m/s 711 mmHg 83%
    18:00 +6°C° 0 mm 2 m/s 711 mmHg 89%
    19:00 +5°C° 0 mm 2 m/s 712 mmHg 91%
    20:00 +6°C° 0 mm 1 m/s 712 mmHg 92%
    21:00 +5°C° 0 mm 1 m/s 712 mmHg 94%
    22:00 +5°C° 0 mm 1 m/s 712 mmHg 94%
    23:00 +4°C° 0 mm 1 m/s 712 mmHg 94%

    26 Februarie, Duminică

    Timp Temperatura Precipitaţii Vânt Presiune Umiditate
    00:00 +4°C° 0 mm 1 m/s 712 mmHg 95%
    01:00 +3°C° 0 mm 1 m/s 712 mmHg 95%
    02:00 +2°C° 0 mm 1 m/s 712 mmHg 95%
    03:00 +2°C° 0 mm 1 m/s 711 mmHg 95%
    04:00 +2°C° 0 mm 1 m/s 711 mmHg 95%
    05:00 +1°C° 0 mm 1 m/s 711 mmHg 95%
    06:00 +1°C° 0 mm 1 m/s 711 mmHg 95%
    07:00 +3°C° 0 mm 0 m/s 712 mmHg 83%
    08:00 +7°C° 0 mm 0 m/s 713 mmHg 71%
    09:00 +10°C° 0 mm 0 m/s 714 mmHg 58%
    10:00 +11°C° 0 mm 0 m/s 713 mmHg 52%
    11:00 +14°C° 0 mm 1 m/s 713 mmHg 45%
    12:00 +15°C° 0 mm 1 m/s 713 mmHg 38%
    13:00 +15°C° 0 mm 1 m/s 712 mmHg 40%
    14:00 +15°C° 0 mm 2 m/s 712 mmHg 42%
    15:00 +15°C° 0 mm 2 m/s 711 mmHg 43%
    16:00 +12°C° 0 mm 2 m/s 711 mmHg 57%
    17:00 +8°C° 0 mm 2 m/s 711 mmHg 71%
    18:00 +7°C° 0 mm 1 m/s 711 mmHg 85%
    19:00 +6°C° 0 mm 1 m/s 711 mmHg 89%
    20:00 +4°C° 0 mm 1 m/s 711 mmHg 92%
    21:00 +2°C° 0 mm 0 m/s 711 mmHg 96%
    22:00 +2°C° 0 mm 0 m/s 711 mmHg 96%
    23:00 +2°C° 0 mm 0 m/s 711 mmHg 96%

    27 Februarie, Luni

    Timp Temperatura Precipitaţii Vânt Presiune Umiditate
    00:00 +3°C° 0 mm 1 m/s 710 mmHg 96%
    01:00 +3°C° 0 mm 1 m/s 710 mmHg 96%
    02:00 +3°C° 0 mm 1 m/s 710 mmHg 96%
    03:00 +3°C° 0 mm 1 m/s 709 mmHg 95%
    04:00 +2°C° 0 mm 1 m/s 709 mmHg 95%
    05:00 +2°C° 0 mm 1 m/s 710 mmHg 95%
    06:00 +2°C° 0 mm 1 m/s 710 mmHg 94%
    07:00 +6°C° 0 mm 1 m/s 710 mmHg 80%
    08:00 +9°C° 0 mm 1 m/s 711 mmHg 66%
    09:00 +13°C° 0 mm 1 m/s 712 mmHg 51%
    10:00 +15°C° 0 mm 1 m/s 712 mmHg 44%
    11:00 +16°C° 0 mm 1 m/s 711 mmHg 36%
    12:00 +18°C° 0 mm 2 m/s 711 mmHg 29%
    13:00 +17°C° 0 mm 2 m/s 711 mmHg 31%
    14:00 +17°C° 0 mm 2 m/s 710 mmHg 33%
    15:00 +17°C° 0 mm 2 m/s 710 mmHg 34%
    16:00 +14°C° 0 mm 2 m/s 710 mmHg 49%
    17:00 +10°C° 0 mm 1 m/s 709 mmHg 64%
    18:00 +7°C° 0 mm 1 m/s 709 mmHg 78%
    19:00 +6°C° 0 mm 1 m/s 709 mmHg 81%
    20:00 +5°C° 0 mm 1 m/s 709 mmHg 83%
    21:00 +5°C° 0 mm 1 m/s 709 mmHg 86%
    22:00 +5°C° 0 mm 1 m/s 709 mmHg 84%
    23:00 +5°C° 0 mm 1 m/s 709 mmHg 81%

    28 Februarie, Marţi

    Timp Temperatura Precipitaţii Vânt Presiune Umiditate
    00:00 +6°C° 0 mm 1 m/s 709 mmHg 79%
    01:00 +6°C° 0 mm 1 m/s 709 mmHg 78%
    02:00 +6°C° 0 mm 1 m/s 708 mmHg 76%
    03:00 +6°C° 0 mm 1 m/s 708 mmHg 75%
    04:00 +6°C° 0 mm 1 m/s 708 mmHg 73%
    05:00 +6°C° 0 mm 1 m/s 708 mmHg 72%
    06:00 +5°C° 0 mm 2 m/s 708 mmHg 70%
    07:00 +8°C° 0 mm 2 m/s 709 mmHg 61%
    08:00 +12°C° 0 mm 2 m/s 710 mmHg 51%
    09:00 +15°C° 0 mm 2 m/s 710 mmHg 42%
    10:00 +17°C° 0 mm 2 m/s 710 mmHg 38%
    11:00 +18°C° 0 mm 2 m/s 710 mmHg 35%
    12:00 +20°C° 0 mm 3 m/s 710 mmHg 32%
    13:00 +20°C° 0 mm 3 m/s 710 mmHg 34%
    14:00 +19°C° 0 mm 3 m/s 709 mmHg 36%
    15:00 +19°C° 0 mm 3 m/s 709 mmHg 38%
    16:00 +16°C° 0 mm 2 m/s 709 mmHg 51%
    17:00 +13°C° 0 mm 2 m/s 709 mmHg 65%
    18:00 +10°C° 0 mm 1 m/s 709 mmHg 78%
    19:00 +9°C° 0 mm 1 m/s 709 mmHg 81%
    20:00 +8°C° 0 mm 1 m/s 709 mmHg 85%
    21:00 +6°C° 0 mm 0 m/s 709 mmHg 88%
    22:00 +6°C° 0 mm 1 m/s 709 mmHg 88%
    23:00 +6°C° 0 mm 1 m/s 709 mmHg 89%
    Arată mai mult